Location: Slemon Park
(46.4340°N, 63.8219°W)
Time: 05:44:43
(UTC-03:00)

ISS - All Passes

Search period start: 16 April 2014 00:00
Search period end: 26 April 2014 00:00
Orbit: 415 x 420 km, 51.6° (Epoch: 16 April)

Date Brightness Start Highest point End Pass type
(mag) Time Alt. Az. Time Alt. Az. Time Alt. Az.
16 Apr - 00:57:10 10° WSW 00:58:22 12° SW 00:59:34 10° SSW night (unlit)
16 Apr - 17:39:28 10° SW 17:42:45 55° SSE 17:46:03 10° ENE daylight
16 Apr - 19:16:24 10° W 19:19:37 41° NNW 19:22:50 10° ENE daylight
16 Apr - 20:53:45 10° WNW 20:56:52 33° N 20:59:59 10° ENE visible
16 Apr - 22:30:33 10° WNW 22:33:56 81° NNE 22:37:18 10° ESE visible
17 Apr - 00:07:56 10° W 00:10:21 18° SW 00:12:46 10° S visible
17 Apr - 16:51:30 10° SSW 16:54:35 34° SE 16:57:40 10° ENE daylight
17 Apr - 18:27:58 10° W 18:31:16 51° NNW 18:34:34 10° ENE daylight
17 Apr - 20:05:23 10° WNW 20:08:28 32° N 20:11:33 10° ENE daylight
17 Apr - 21:42:18 10° WNW 21:45:38 58° NNE 21:48:58 10° ESE visible
17 Apr - 23:19:17 10° W 23:22:15 29° SW 23:25:12 10° SSE visible
18 Apr - 16:03:46 10° S 16:06:25 22° SE 16:09:05 10° E daylight
18 Apr - 17:39:34 10° WSW 17:42:55 70° NNW 17:46:16 10° ENE daylight
18 Apr - 19:16:56 10° WNW 19:20:01 33° N 19:23:07 10° ENE daylight
18 Apr - 20:54:00 10° WNW 20:57:15 44° NNE 21:00:30 10° E visible
18 Apr - 22:30:48 10° WNW 22:34:03 45° SW 22:37:16 10° SE visible
19 Apr - 15:16:29 10° SSE 15:18:17 14° SE 15:20:05 10° E daylight
19 Apr - 16:51:13 10° WSW 16:54:34 80° SSE 16:57:56 10° ENE daylight
19 Apr - 18:28:25 10° WNW 18:31:33 35° N 18:34:41 10° ENE daylight
19 Apr - 20:05:38 10° WNW 20:08:48 37° N 20:11:58 10° E daylight
19 Apr - 21:42:24 10° WNW 21:45:45 72° SSW 21:49:06 10° SE visible
19 Apr - 23:20:34 10° WSW 23:21:59 12° SW 23:23:23 10° SSW visible
20 Apr - 16:02:58 10° SW 16:06:14 51° SSE 16:09:30 10° ENE daylight
20 Apr - 17:39:50 10° W 17:43:03 42° NNW 17:46:17 10° ENE daylight
20 Apr - 19:17:12 10° WNW 19:20:18 33° N 19:23:23 10° ENE daylight
20 Apr - 20:54:00 10° WNW 20:57:22 78° NNE 21:00:44 10° ESE visible
20 Apr - 22:31:18 10° W 22:33:48 19° SW 22:36:17 10° S visible
21 Apr - 15:14:52 10° SSW 15:17:54 32° SE 15:20:57 10° ENE daylight
21 Apr - 16:51:15 10° W 16:54:33 53° NNW 16:57:51 10° ENE daylight
21 Apr - 18:28:40 10° WNW 18:31:44 32° N 18:34:48 10° ENE daylight
21 Apr - 20:05:35 10° WNW 20:08:54 55° NNE 20:12:13 10° E daylight
21 Apr - 21:42:31 10° WNW 21:45:31 30° SW 21:48:31 10° SSE visible
22 Apr - 14:27:02 10° S 14:29:35 21° SE 14:32:10 10° E daylight
22 Apr - 16:02:42 10° WSW 16:06:02 74° NNW 16:09:24 10° ENE daylight
22 Apr - 17:40:03 10° WNW 17:43:07 33° N 17:46:13 10° ENE daylight
22 Apr - 19:17:07 10° WNW 19:20:21 43° NNE 19:23:35 10° E daylight
22 Apr - 20:53:54 10° WNW 20:57:09 48° SW 21:00:24 10° SE visible
23 Apr - 13:39:42 10° SSE 13:41:18 13° SE 13:42:54 10° ESE daylight
23 Apr - 15:14:12 10° SW 15:17:32 76° SSE 15:20:54 10° ENE daylight
23 Apr - 16:51:21 10° W 16:54:30 36° N 16:57:38 10° ENE daylight
23 Apr - 18:28:36 10° WNW 18:31:44 36° N 18:34:53 10° E daylight
23 Apr - 20:05:20 10° WNW 20:08:42 76° SSW 20:12:02 10° SE daylight
23 Apr - 21:43:18 10° WSW 21:44:56 13° SW 21:46:34 10° SSW visible
24 Apr - 14:25:49 10° SW 14:29:03 48° SE 14:32:18 10° ENE daylight
24 Apr - 16:02:37 10° W 16:05:50 43° NNW 16:09:04 10° ENE daylight
24 Apr - 17:39:59 10° WNW 17:43:04 33° N 17:46:09 10° ENE daylight
24 Apr - 19:16:47 10° WNW 19:20:09 74° NNE 19:23:29 10° ESE daylight
24 Apr - 20:54:00 10° W 20:56:35 21° SW 20:59:10 10° S visible
25 Apr - 13:37:36 10° SSW 13:40:34 30° SE 13:43:33 10° ENE daylight
25 Apr - 15:13:53 10° W 15:17:11 56° NNW 15:20:29 10° ENE daylight
25 Apr - 16:51:17 10° WNW 16:54:20 32° N 16:57:24 10° ENE daylight
25 Apr - 18:28:13 10° WNW 18:31:30 53° NNE 18:34:48 10° E daylight
25 Apr - 20:05:06 10° WNW 20:08:09 33° SW 20:11:11 10° SSE daylight
